[Iaude] MPEC H94: 2024 HT1 [a=2.14,e=0.65,i=3.4,H=24.4]
    mpec at cfa.harvard.edu 
    mpec at cfa.harvard.edu
       
    Mon Apr 29 19:55:39 EDT 2024
    
    
  
M.P.E.C. 2024-H94                                Issued 2024 April 29, 23:54 UT
     The Minor Planet Electronic Circulars contain information on unusual
         minor planets, routine data on comets and natural satellites,
         and occasional editorial announcements.  They are published
    on behalf of Division F of the International Astronomical Union by the
          Minor Planet Center, Smithsonian Astrophysical Observatory,
                          Cambridge, MA 02138, U.S.A.
			  
             Prepared using the Tamkin Foundation Computer Network
                              MPC at CFA.HARVARD.EDU
            URL https://www.minorplanetcenter.net/    ISSN 1523-6714
                                    2024 HT1                                    
Observations:
     K24H01T* C2024 04 28.28344815 21 21.550-28 30 09.97         17.13oVEH094W68
     K24H01T  C2024 04 28.30837315 20 51.838-28 26 05.71         15.74oVEH094W68
     K24H01T  C2024 04 28.31220715 20 47.174-28 25 28.92         16.35oVEH094W68
     K24H01T  C2024 04 28.31808815 20 40.382-28 24 31.50         16.69oVEH094W68
     K24H01T  C2024 04 28.39387815 19 18.83 -28 12 25.1                WEH094X09
     K24H01T  C2024 04 28.39745615 19 15.34 -28 11 51.8                WEH094X09
     K24H01T KB2024 04 28.41983 15 19 07.88 -28 17 17.5          16.2 VZEH094V24
     K24H01T KB2024 04 28.42199 15 19 05.67 -28 16 58.0          16.3 VZEH094V24
     K24H01T KB2024 04 28.42415 15 19 03.37 -28 16 38.1          16.5 VZEH094V24
     K24H01T KC2024 04 28.53302 15 18 03.48 -27 54 59.3          17.1 VqEH094E23
     K24H01T KC2024 04 28.54020 15 17 56.69 -27 54 10.4          16.5 VqEH094E23
     K24H01T KC2024 04 28.54691 15 17 50.36 -27 53 25.1                qEH094E23
     K24H01T KB2024 04 28.61821615 16 51.730-27 52 31.05         16.7 GXEH094Q06
     K24H01T KB2024 04 28.62243015 16 47.917-27 52 02.71         16.6 GXEH094Q06
     K24H01T KB2024 04 28.62677215 16 44.169-27 51 32.68         15.8 GXEH094Q06
     K24H01T KC2024 04 28.97976915 13 10.553-27 16 53.40         17.3 GVEH094J95
     K24H01T KC2024 04 28.97977 15 13 06.39 -27 16 51.0          17.3 GqEH094C75
     K24H01T KC2024 04 28.97981 15 13 06.36 -27 16 50.8                qEH094C75
     K24H01T KC2024 04 28.97984 15 13 06.34 -27 16 50.6                qEH094C75
     K24H01T KC2024 04 28.98594215 13 06.706-27 16 22.44         17.7 GVEH094J95
     K24H01T KC2024 04 28.98784315 13 05.566-27 16 13.84         17.3 GVEH094J95
     K24H01T KC2024 04 29.03612 15 12 56.70 -27 04 00.4          17.4 VqEH094I47
     K24H01T KC2024 04 29.07791 15 12 32.99 -27 01 14.6          17.6 VqEH094I47
     K24H01T KB2024 04 29.11938715 12 00.928-27 00 29.63         17.5 VZEH094Y05
     K24H01T KC2024 04 29.11952 15 12 08.97 -26 58 29.1          17.6 VqEH094I47
     K24H01T KB2024 04 29.12374815 11 58.206-27 00 10.50         17.5 VZEH094Y05
     K24H01T KB2024 04 29.12803915 11 55.555-26 59 51.70         17.4 VZEH094Y05
     K24H01T KC2024 04 29.13358 15 11 54.99 -26 59 14.8          16.8 rqEH094X74
     K24H01T KC2024 04 29.13877 15 11 51.80 -26 58 52.8          17.2 rqEH094X74
     K24H01T KC2024 04 29.14376 15 11 48.77 -26 58 30.9          17.3 rqEH094X74
     K24H01T KB2024 04 29.78984 15 07 57.57 -26 22 28.9          17.8 rZEH094M44
     K24H01T KB2024 04 29.79359 15 07 56.07 -26 22 18.8          17.3 rZEH094M44
     K24H01T KB2024 04 29.79733 15 07 54.58 -26 22 08.8          17.3 rZEH094M44
Observer details:
C75 Whitestar Observatory, Borgobello.  Observer T. Gregor.  Measurers V.
    Gonano, T. Gregor.  0.25-m f/5.7 Schmidt-Cassegrain + CCD.
E23 Arcadia.  Observer A. Hidas.  0.35-m f/1.9 reflector + CCD.
I47 Pierre Auger Observatory, Malargue.  Observer M. Masek.  0.3-m f/6.8
    reflector + CCD.
J95 Great Shefford.  Observer P. Birtwhistle.  0.41-m f/6.3 Schmidt-Cassegrain
    + CCD.
M44 Al-Khatim Observatory, Abu Dhabi.  Observer M. Odeh.  0.36-m f/7.7 SC +
    CMO.
Q06 Tarui Observatory, Tarui.  Observer H. Watanabe.  0.35-m f/1.9 Schmidt-
    Cassegrain + CMO.
V24 Sonoran Desert Skies Observatory, Pearce.  Observer A. Helms.  0.32-m
    f/6.7 reflector + CMO.
W68 ATLAS Chile, Rio Hurtado.  Observers L. Denneau, R. Siverd, J. Tonry, H.
    Weiland.  Measurers L. Denneau, N. Erasmus, A. Fitzsimmons, J. Robinson,
    R. Siverd, J. Tonry, H. Weiland.  0.5-m Reflector + CCD.
X09 Deep Random Survey, Rio Hurtado.  Observers A. Schnabel, D. Ruhela.
    Measurer S. Deen.  0.43-m reflector + CMOS.
X74 Observatorio Campo dos Amarais.  Observer L. S. Amaral.  0.31-m f/3.4
    Newtonian + CCD.
Y05 SONEAR Wykrota-CEAMIG, Serra da Piedade.  Observer C. Jacques.  0.45-m
    f/2.9 reflector + CMO.
Orbital elements:
2024 HT1                                                 Earth MOID = 0.0009 AU
Epoch 2024 Mar. 31.0 TT = JDT 2460400.5                 Veres                   
M   5.48370              (2000.0)            P               Q                  
n   0.31429446     Peri.  111.04455     -0.83587365     -0.54779609             
a   2.1424543      Node    35.76550     +0.47866871     -0.75873331             
e   0.6515935      Incl.    3.44669     +0.26868478     -0.35248150             
P   3.14           H   24.42          G   0.15           U   7                  
Residuals in seconds of arc
240428 W68  0.4+  0.1-    240428 E23  0.6-  0.3+    240429 I47  0.5-  0.2-
240428 W68  2.1+  0.6+    240428 Q06  0.7+  0.0     240429 Y05  0.2-  0.1+
240428 W68  0.3-  0.0     240428 Q06  0.4-  0.0     240429 Y05  0.0   0.1+
240428 W68  0.1+  0.3+    240428 Q06  0.8+  0.8+    240429 X74  0.1+  0.0
240428 X09  0.4-  0.4+    240428 J95  0.4-  0.2+    240429 X74  0.0   0.3-
240428 X09  0.4+  0.0     240428 C75  0.1-  0.1+    240429 X74  0.4+  0.1+
240428 V24  0.7-  1.4-    240428 J95  0.2-  0.6+    240429 M44  0.3-  0.1-
240428 V24  0.2-  1.3-    240428 J95  0.5+  0.2-    240429 M44  0.1-  0.1+
240428 V24  1.0-  0.8-    240429 I47  0.1-  0.3-    240429 M44  0.1+  0.2+
240428 E23  0.3-  0.1-    240429 I47  0.4-  0.1-
240428 E23  0.4-  0.3+    240429 Y05  0.0   0.0
Ephemeris:
2024 HT1                 a,e,i = 2.14, 0.65, 3                   q = 0.7464
Date    TT    R. A. (2000) Decl.     Delta      r    Elong.  Phase     V
2024 03 30    02 41 02.1 +22 02 07   0.2757  0.7912    35.7   132.6    27.1
...
2024 04 14    02 48 28.1 +22 57 04   0.1197  0.8942    23.2   153.7    28.8
...
2024 04 22    02 42 51.5 +21 53 38   0.04267 0.9638    14.2   165.2    30.7
...
2024 04 28    15 27 17.7 -29 22 46   0.01429 1.0201   158.6    21.2    16.3
2024 04 29    15 12 54.6 -27 09 16   0.02365 1.0297   163.2    16.4    17.2
2024 04 30    15 06 50.2 -26 09 27   0.03306 1.0393   165.7    13.9    17.9
...
2024 05 06    14 57 08.9 -24 27 33   0.09018 1.0982   172.0     7.4    19.9
...
2024 05 14    14 54 38.9 -23 50 02   0.1691  1.1781   171.4     7.4    21.5
...
2024 05 29    14 56 02.2 -23 16 40   0.3310  1.3288   159.6    15.4    23.5
M. P. C. Staff               (C) Copyright 2024 MPC           M.P.E.C. 2024-H94
    
    
More information about the Iaude
mailing list